SR9WXZ Weather Reports


time (UTC)temp
C
wind
direction
speed
KPH
gust
KPH
rain 1hr
cm
rain 24hr
cm
rain mn
cm
humidity
%
barometer
mb
20260905195637 15 200 3.2 6.4 0.00 0.00 0.00 100
20260905194637 17 118 1.6 1.6 0.00 0.00 0.00 100
20260905194137 17 147 3.2 3.2 0.00 0.00 0.00 100
20260905193637 17 264 3.2 3.2 0.00 0.00 0.00 100
20260905193136 17 245 3.2 4.8 0.00 0.00 0.00 100
20260905192636 17 182 3.2 3.2 0.00 0.00 0.00 100
20260905192136 17 173 4.8 6.4 0.00 0.00 0.00 100
20260905191635 17 174 3.2 3.2 0.00 0.00 0.00 100
20260905191135 17 165 4.8 8.0 0.00 0.00 0.00 100
20260905190635 17 188 3.2 4.8 0.00 0.00 0.00 100
20260905190135 18 180 6.4 12.9 0.00 0.00 0.00 100
20260905185634 17 177 6.4 9.7 0.00 0.00 0.00 100
20260905185135 18 169 9.7 12.9 0.00 0.00 0.00 100
20260905184634 18 167 8.0 12.9 0.00 0.00 0.00 100
20260905184134 18 172 9.7 16.1 0.00 0.00 0.00 100
20260905183634 18 172 8.0 9.7 0.00 0.00 0.00 100
20260905183134 18 174 6.4 11.3 0.00 0.00 0.00 100
20260905182634 18 167 9.7 17.7 0.00 0.00 0.00 100
20260905182133 18 174 6.4 14.5 0.00 0.00 0.00 100
20260905181633 18 168 6.4 11.3 0.00 0.00 0.00 100
20260905181133 18 160 4.8 8.0 0.00 0.00 0.00 100
20260905180630 18 175 6.4 9.7 0.00 0.00 0.00 100
20260905180130 18 158 8.0 14.5 0.00 0.00 0.00 100
20260905175629 18 180 6.4 11.3 0.00 0.00 0.00 100
20260905175129 18 157 4.8 8.0 0.00 0.00 0.00 100
20260905174629 18 176 4.8 6.4 0.00 0.00 0.00 100
20260905174129 18 169 4.8 6.4 0.00 0.00 0.00 100
20260905173629 18 168 4.8 6.4 0.00 0.00 0.00 100
20260905173128 18 177 6.4 9.7 0.00 0.00 0.00 100
20260905172628 18 176 6.4 8.0 0.00 0.00 0.00 100
20260905172118 19 179 8.0 12.9 0.00 0.00 0.00 100
20260905171618 19 184 8.0 16.1 0.00 0.00 0.00 100
20260905171117 19 185 6.4 16.1 0.00 0.00 0.00 100
20260905170617 19 177 8.0 11.3 0.00 0.00 0.00 100
20260905170117 20 174 9.7 16.1 0.00 0.00 0.00 100
20260905165617 20 178 11.3 14.5 0.00 0.00 0.00 100
20260905165117 20 177 11.3 14.5 0.00 0.00 0.00 100
20260905164617 20 177 14.5 20.9 0.00 0.00 0.00 100
20260905164116 20 189 8.0 14.5 0.00 0.00 0.00 100
20260905163616 20 181 11.3 20.9 0.00 0.00 0.00 100
20260905163116 20 159 17.7 27.4 0.00 0.00 0.00 100
20260905162616 20 150 11.3 16.1 0.00 0.00 0.00 100
20260905161613 20 155 11.3 24.1 0.00 0.00 0.00 100
20260905160612 21 161 11.3 17.7 0.00 0.00 0.00 100
20260905160112 21 151 14.5 22.5 0.00 0.00 0.00 100
20260905155612 21 149 12.9 22.5 0.00 0.00 0.00 100
20260905155112 21 152 11.3 19.3 0.00 0.00 0.00 100
20260905154611 21 149 12.9 24.1 0.00 0.00 0.00 100
20260905154111 21 154 11.3 17.7 0.00 0.00 0.00 100
20260905153611 21 157 8.0 14.5 0.00 0.00 0.00 100
20260905153111 21 150 12.9 17.7 0.00 0.00 0.00 100
20260905152610 21 166 9.7 16.1 0.00 0.00 0.00 100
20260905152110 21 160 8.0 17.7 0.00 0.00 0.00 100
20260905151610 21 156 9.7 12.9 0.00 0.00 0.00 100
20260905150610 21 161 6.4 11.3 0.00 0.00 0.00 100
20260905150109 21 175 8.0 11.3 0.00 0.00 0.00 100
20260905145851 21 162 8.0 14.5 0.00 0.00 0.00 100
20260905145351 21 150 9.7 16.1 0.00 0.00 0.00 100
20260905144851 21 150 11.3 16.1 0.00 0.00 0.00 100
20260905144351 21 165 9.7 17.7 0.00 0.00 0.00 100
20260905143850 21 142 16.1 22.5 0.00 0.00 0.00 100
20260905143350 21 142 14.5 24.1 0.00 0.00 0.00 100
20260905142850 21 139 17.7 22.5 0.00 0.00 0.00 100
20260905142350 21 139 17.7 27.4 0.00 0.00 0.00 100
20260905141850 21 160 9.7 20.9 0.00 0.00 0.00 100
20260905141350 21 160 8.0 12.9 0.00 0.00 0.00 100
20260905140850 21 160 9.7 16.1 0.00 0.00 0.00 100
20260905134839 21 146 22.5 33.8 0.00 0.00 0.00 100
20260905134339 21 139 20.9 27.4 0.00 0.00 0.00 100
20260905133838 21 137 14.5 22.5 0.00 0.00 0.00 100
20260905133338 21 145 14.5 22.5 0.00 0.00 0.00 100
20260905132838 21 147 11.3 17.7 0.00 0.00 0.00 100
20260905132338 20 144 12.9 19.3 0.00 0.00 0.00 100
20260905131838 20 142 20.9 35.4 0.00 0.00 0.00 100
20260905131337 21 157 11.3 20.9 0.00 0.00 0.00 100
20260905130837 20 147 14.5 19.3 0.00 0.00 0.00 100
20260905130337 20 142 17.7 25.7 0.00 0.00 0.00 100
20260905125837 20 143 11.3 17.7 0.00 0.00 0.00 100
20260905125337 20 145 19.3 32.2 0.00 0.00 0.00 100
20260905124837 21 151 12.9 17.7 0.00 0.00 0.00 100
20260905124336 20 148 19.3 29.0 0.00 0.00 0.00 100
20260905123836 20 151 14.5 25.7 0.00 0.00 0.00 100
20260905123336 20 142 14.5 20.9 0.00 0.00 0.00 100
20260905122836 20 145 19.3 25.7 0.00 0.00 0.00 100
20260905122336 20 148 16.1 25.7 0.00 0.00 0.00 100
20260905121835 20 142 20.9 35.4 0.00 0.00 0.00 100
20260905121335 21 147 14.5 19.3 0.00 0.00 0.00 100
20260905120835 20 146 17.7 29.0 0.00 0.00 0.00 100
20260905120335 21 152 16.1 30.6 0.00 0.00 0.00 100
20260905115835 20 151 14.5 25.7 0.00 0.00 0.00 100
20260905115334 20 143 12.9 19.3 0.00 0.00 0.00 100
20260905114834 20 146 16.1 19.3 0.00 0.00 0.00 100
20260905114334 20 140 20.9 29.0 0.00 0.00 0.00 100
20260905113834 20 145 14.5 20.9 0.00 0.00 0.00 100
20260905113334 20 145 16.1 22.5 0.00 0.00 0.00 100
20260905112821 20 154 14.5 22.5 0.00 0.00 0.00 100
20260905112321 20 148 19.3 27.4 0.00 0.00 0.00 100
20260905111820 19 150 19.3 27.4 0.00 0.00 0.00 100
20260905111320 20 144 20.9 30.6 0.00 0.00 0.00 100
20260905110820 20 149 16.1 37.0 0.00 0.00 0.00 100
20260905110320 20 152 14.5 20.9 0.00 0.00 0.00 100
20260905105820 20 162 14.5 20.9 0.00 0.00 0.00 100
20260905105320 19 159 16.1 25.7 0.00 0.00 0.00 100
20260905104819 19 147 19.3 27.4 0.00 0.00 0.00 100
20260905104319 19 151 16.1 25.7 0.00 0.00 0.00 100
20260905103819 19 145 20.9 29.0 0.00 0.00 0.00 100
20260905103319 20 151 16.1 22.5 0.00 0.00 0.00 100
20260905102819 19 142 12.9 22.5 0.00 0.00 0.00 100
20260905102319 19 143 17.7 29.0 0.00 0.00 0.00 100
20260905101819 18 147 17.7 30.6 0.00 0.00 0.00 100
20260905101318 18 142 16.1 27.4 0.00 0.00 0.00 100
20260905100818 18 139 19.3 29.0 0.00 0.00 0.00 100
20260905100318 18 138 17.7 25.7 0.00 0.00 0.00 100
20260905095818 18 143 17.7 27.4 0.00 0.00 0.00 100
20260905095317 18 131 16.1 22.5 0.00 0.00 0.00 100
20260905091816 18 139 9.7 19.3 0.00 0.00 0.00 100
20260905091314 17 147 8.0 12.9 0.00 0.00 0.00 100
20260905090814 17 152 11.3 16.1 0.00 0.00 0.00 100
20260905090314 17 144 12.9 19.3 0.00 0.00 0.00 100
20260905085814 17 173 9.7 16.1 0.00 0.00 0.00 100
20260905085306 17 173 9.7 16.1 0.00 0.00 0.00 100
20260905084803 16 181 6.4 11.3 0.00 0.00 0.00 100
20260905084303 16 178 12.9 20.9 0.00 0.00 0.00 100
20260905083303 16 177 6.4 8.0 0.00 0.00 0.00 100
20260905082803 16 179 9.7 14.5 0.00 0.00 0.00 100
20260905082306 16 181 8.0 12.9 0.00 0.00 0.00 100
20260905081302 15 175 4.8 8.0 0.00 0.00 0.00 100
20260905080302 15 172 6.4 11.3 0.00 0.00 0.00 100
20260905075802 15 202 4.8 8.0 0.00 0.00 0.00 100
20260905075305 15 185 4.8 8.0 0.00 0.00 0.00 100
20260905074801 15 182 6.4 6.4 0.00 0.00 0.00 100
20260905074301 15 178 8.0 12.9 0.00 0.00 0.00 100
20260905073801 15 171 6.4 9.7 0.00 0.00 0.00 100
20260905073301 15 175 6.4 9.7 0.00 0.00 0.00 100
20260905072300 16 182 6.4 9.7 0.00 0.00 0.00 100
20260905071800 15 159 12.9 19.3 0.00 0.00 0.00 100
20260905071300 15 173 6.4 9.7 0.00 0.00 0.00 100
20260905070800 16 179 8.0 11.3 0.00 0.00 0.00 100
20260905070300 15 180 8.0 12.9 0.00 0.00 0.00 100
20260905065759 16 177 8.0 14.5 0.00 0.00 0.00 100
20260905065259 15 178 4.8 9.7 0.00 0.00 0.00 100
20260905064759 15 161 6.4 12.9 0.00 0.00 0.00 100
20260905063759 16 156 4.8 6.4 0.00 0.00 0.00 100
20260905063259 16 171 1.6 1.6 0.00 0.00 0.00 100
20260905062758 16 161 3.2 4.8 0.00 0.00 0.00 100
20260905062258 16 157 3.2 3.2 0.00 0.00 0.00 100
20260905061245 15 179 3.2 3.2 0.00 0.00 0.00 100
20260905060745 15 179 3.2 3.2 0.00 0.00 0.00 100
20260905060245 15 179 3.2 4.8 0.00 0.00 0.00 100
20260905055745 15 191 3.2 3.2 0.00 0.00 0.00 100
20260905055244 15 207 4.8 6.4 0.00 0.00 0.00 100
20260905054744 15 201 4.8 6.4 0.00 0.00 0.00 100
20260905053744 15 196 3.2 3.2 0.00 0.00 0.00 100
20260905053243 15 173 3.2 3.2 0.00 0.00 0.00 100
20260905052743 15 173 3.2 4.8 0.00 0.00 0.00 100
20260905052243 15 306 3.2 3.2 0.00 0.00 0.00 100
20260905051743 16 112 3.2 6.4 0.00 0.00 0.00 100
20260905051242 16 58 3.2 3.2 0.00 0.00 0.00 100
20260905050742 15 108 3.2 3.2 0.00 0.00 0.00 100
20260905050242 15 208 4.8 4.8 0.00 0.00 0.00 100
20260905045742 15 208 4.8 6.4 0.00 0.00 0.00 100
20260905045241 16 242 3.2 3.2 0.00 0.00 0.00 100
20260905044741 15 231 3.2 4.8 0.00 0.00 0.00 100
20260905044241 16 219 3.2 3.2 0.00 0.00 0.00 100
20260905043741 16 219 3.2 3.2 0.00 0.00 0.00 100
20260905043241 15 219 3.2 3.2 0.00 0.00 0.00 100
20260905042741 15 202 4.8 6.4 0.00 0.00 0.00 100
20260905042240 15 214 3.2 4.8 0.00 0.00 0.00 100
20260905041740 16 190 3.2 4.8 0.00 0.00 0.00 100
20260905041240 16 196 3.2 3.2 0.00 0.00 0.00 100
20260905040740 16 196 3.2 3.2 0.00 0.00 0.00 100
20260905040240 16 229 3.2 4.8 0.00 0.00 0.00 100
20260905035740 16 244 1.6 1.6 0.00 0.00 0.00 100
20260905035239 16 245 1.6 1.6 0.00 0.00 0.00 100
20260905034739 16 239 3.2 3.2 0.00 0.00 0.00 100
20260905034229 16 241 3.2 3.2 0.00 0.00 0.00 100
20260905033729 17 267 4.8 6.4 0.00 0.00 0.00 100
20260905033228 17 307 3.2 3.2 0.00 0.00 0.00 100
20260905032228 16 214 3.2 3.2 0.00 0.00 0.00 100
20260905031227 16 212 3.2 3.2 0.00 0.00 0.00 100
20260905030727 17 209 3.2 3.2 0.00 0.00 0.00 100
20260905030227 17 247 3.2 4.8 0.00 0.00 0.00 100
20260905025727 16 246 3.2 6.4 0.00 0.00 0.00 100
20260905025226 17 228 4.8 6.4 0.00 0.00 0.00 100
20260905024726 17 136 4.8 11.3 0.00 0.00 0.00 100
20260905024226 16 179 3.2 3.2 0.00 0.00 0.00 100
20260905023726 16 179 3.2 3.2 0.00 0.00 0.00 100
20260905023226 17 179 3.2 3.2 0.00 0.00 0.00 100
20260905022726 16 182 3.2 3.2 0.00 0.00 0.00 100
20260905022225 17 179 3.2 3.2 0.00 0.00 0.00 100
20260905021725 16 179 3.2 3.2 0.00 0.00 0.00 100
20260905021225 17 180 3.2 3.2 0.00 0.00 0.00 100
20260905020225 17 179 3.2 3.2 0.00 0.00 0.00 100
20260905015724 17 179 3.2 3.2 0.00 0.00 0.00 100
20260905015224 17 183 3.2 3.2 0.00 0.00 0.00 100
20260905014724 17 167 3.2 3.2 0.00 0.00 0.00 100
20260905014224 17 167 3.2 3.2 0.00 0.00 0.00 100
20260905013724 17 161 4.8 4.8 0.00 0.00 0.00 100
20260905013224 17 152 4.8 6.4 0.00 0.00 0.00 100
20260905012723 18 232 3.2 3.2 0.00 0.00 0.00 100
20260905011723 18 247 4.8 8.0 0.00 0.00 0.00 100
20260905011223 18 236 3.2 4.8 0.00 0.00 0.00 100
20260905005708 18 205 4.8 8.0 0.00 0.00 0.00 100
20260905005208 18 202 8.0 11.3 0.00 0.00 0.00 100
20260905004708 18 205 9.7 16.1 0.00 0.00 0.00 100
20260905004208 18 204 8.0 12.9 0.00 0.00 0.00 100
20260905003707 19 196 12.9 19.3 0.00 0.00 0.00 100
20260905003207 19 222 9.7 17.7 0.00 0.00 0.00 100
20260905002707 20 197 9.7 16.1 0.00 0.00 0.00 100
20260905002207 20 213 11.3 17.7 0.00 0.00 0.00 100
20260905001707 20 204 9.7 16.1 0.00 0.00 0.00 100
20260905001206 20 202 12.9 17.7 0.00 0.00 0.00 100
20260905000706 20 210 11.3 16.1 0.00 0.00 0.00 100
20260905000206 20 198 8.0 12.9 0.00 0.00 0.00 100
20260904235706 20 172 6.4 9.7 0.00 0.00 0.00 100
20260904235206 20 193 8.0 16.1 0.00 0.00 0.00 100
20260904234706 20 208 9.7 14.5 0.00 0.00 0.00 100
20260904234205 20 216 8.0 12.9 0.00 0.00 0.00 100
20260904233704 21 229 12.9 22.5 0.00 0.00 0.00 100
20260904233201 21 221 17.7 27.4 0.00 0.00 0.00 100
20260904232659 21 224 20.9 35.4 0.00 0.00 0.00 100
20260904232154 21 227 24.1 66.0 0.00 0.00 0.00 100
20260904231648 22 218 16.1 25.7 0.00 0.00 0.00 100
20260904231146 22 210 16.1 27.4 0.00 0.00 0.00 100
20260904230643 23 222 16.1 20.9 0.00 0.00 0.00 100
20260904230143 22 198 11.3 22.5 0.00 0.00 0.00 100
20260904225641 22 115 3.2 3.2 0.00 0.00 0.00 100
20260904225141 22 116 3.2 3.2 0.00 0.00 0.00 100
20260904224641 23 224 3.2 4.8 0.00 0.00 0.00 100
20260904224141 24 168 6.4 17.7 0.00 0.00 0.00 100
20260904223640 24 173 4.8 6.4 0.00 0.00 0.00 100
20260904223130 24 166 6.4 9.7 0.00 0.00 0.00 100
20260904222630 24 163 6.4 9.7 0.00 0.00 0.00 100
20260904222130 24 158 9.7 16.1 0.00 0.00 0.00 100
20260904221630 24 172 4.8 6.4 0.00 0.00 0.00 100
20260904221129 24 163 11.3 33.8 0.00 0.00 0.00 100
20260904220627 24 165 8.0 16.1 0.00 0.00 0.00 100
20260904220127 24 160 8.0 11.3 0.00 0.00 0.00 100
20260904215627 25 156 14.5 22.5 0.00 0.00 0.00 100
20260904215127 24 156 11.3 14.5 0.00 0.00 0.00 100
20260904214627 25 162 16.1 24.1 0.00 0.00 0.00 100
20260904214126 24 164 9.7 14.5 0.00 0.00 0.00 100
20260904213626 24 157 12.9 17.7 0.00 0.00 0.00 100
20260904213126 24 168 8.0 12.9 0.00 0.00 0.00 100
20260904212626 24 171 6.4 9.7 0.00 0.00 0.00 100
20260904212126 24 171 6.4 9.7 0.00 0.00 0.00 100
20260904211625 24 163 6.4 14.5 0.00 0.00 0.00 100
20260904211125 25 166 8.0 14.5 0.00 0.00 0.00 100
20260904210625 25 157 12.9 20.9 0.00 0.00 0.00 100
20260904210125 25 156 14.5 22.5 0.00 0.00 0.00 100
20260904205625 25 157 16.1 27.4 0.00 0.00 0.00 100
20260904205125 25 159 16.1 20.9 0.00 0.00 0.00 100
20260904204124 25 158 17.7 27.4 0.00 0.00 0.00 100
20260904203624 24 161 8.0 17.7 0.00 0.00 0.00 100
20260904203124 24 158 8.0 12.9 0.00 0.00 0.00 100
20260904202624 25 170 11.3 17.7 0.00 0.00 0.00 100
20260904202124 24 172 8.0 14.5 0.00 0.00 0.00 100
20260904201123 22 45 6.4 6.4 0.00 0.00 0.00 100
20260904200121 21 97 3.2 4.8 0.00 0.00 0.00 100